South Bend International Airport (SBN)


Airport Diagram
Current Weather/Forecast (VFR Conditions)
METAR KSBN 300554Z AUTO 33004KT 10SM SCT043 OVC060 05/00 A3004 RMK AO2 SLP176 T00500000 10072 20033 51021
TAF KSBN 300540Z 3006/3106 36005KT P6SM SCT025 BKN040 FM300900 35004KT P6SM BKN025 FM302000 32007KT P6SM SCT040 FM310000 VRB03KT P6SM FEW040

All Charts
General
Chart Name Download
AIRPORT DIAGRAM
TAKEOFF MINIMUMS
ALTERNATE MINIMUMS

Approaches
Chart Name Download
ILS OR LOC RWY 09R
ILS OR LOC RWY 27L
ILS RWY 27L (SA CAT I - II)
RNAV (GPS) RWY 09L
RNAV (GPS) RWY 09R
RNAV (GPS) RWY 18
RNAV (GPS) RWY 27L
RNAV (GPS) RWY 27R
RNAV (GPS) RWY 36
VOR RWY 18